Weather History for La Paz, Mexico

Change the Weather History Date:

Friday, April 5, 2013

  Actual Average Record
Temperature  
Mean Temperature 80 °F -  
Max Temperature 98 °F 86 °F 98 °F (2002)
Min Temperature 61 °F 58 °F 46 °F (1997)
Cooling Degree Days 14    
Growing Degree Days 30 (Base 50)    
Moisture  
Dew Point 46 °F    
Average Humidity 38    
Maximum Humidity 82    
Minimum Humidity 7    
Precipitation  
Precipitation 0.00 in - - ()
Sea Level Pressure  
Sea Level Pressure 29.98 in    
Wind  
Wind Speed 7 mph ()    
Max Wind Speed 12 mph    
Max Gust Speed -    
Visibility 10.0 miles    
Events      
Averages and records for this station are not official NWS values.
T = Trace of Precipitation, MM = Missing Value Source: Averaged Metar Reports

Daily Weather History Graph

Daily Weather History Graph

Search for Another Location

Airport:

Trip Planner

Search our weather history database for the weather conditions in past years. The results will help you decide how hot, cold, wet, or windy it might be!

Date:

Astronomy

Apr. 05, 2013 Rise Set
Actual Time 6:09 AM MST 6:39 PM MST
Civil Twilight 5:46 AM MST 7:02 PM MST
Nautical Twilight 5:19 AM MST 7:28 PM MST
Astronomical Twilight 4:52 AM MST 7:56 PM MST
Moon 2:48 AM MST (4/5) 2:33 PM MST (4/5)
Length of Visible Light 13h 15m
Length of Day
12h 30m
Waning Crescent, 22% of the Moon is Illuminated
Apr 5
Waning Crescent
Apr 10
New
Apr 18
First Quarter
Apr 25
Full
May 2
Last Quarter

Hourly Weather History & Observations

Time (MST) Temp. Dew Point Humidity Pressure Visibility Wind Dir Wind Speed Gust Speed Precip Events Conditions
1:45 AM 69 °F 50 °F 40% 29.94 in 2 mi South 6.7 mph - -   Scattered Clouds
4:40 AM 64 °F 55 °F 64% 29.98 in 2 mi South 4.5 mph - -   Partly Cloudy
6:03 AM 57.2 °F 51.8 °F 82% 29.97 in 10.0 mi South 8.1 mph - N/A   Scattered Clouds
6:46 AM 59.0 °F 50.0 °F 72% 29.97 in 10.0 mi South 11.5 mph - N/A   Scattered Clouds
7:40 AM 68 °F 49 °F 41% 30.02 in 16 mi South 4.5 mph - -   Partly Cloudy
7:43 AM 64.4 °F 51.8 °F 64% 30.04 in 10.0 mi South 11.5 mph - N/A   Scattered Clouds
8:40 AM 75.2 °F 44.6 °F 34% 30.00 in 10.0 mi SSE 9.2 mph - N/A   Scattered Clouds
10:50 AM 85 °F 55 °F 26% 30.00 in 19 mi West 2.2 mph - -   Mostly Cloudy
11:48 AM 86.0 °F 26.6 °F 12% 29.98 in 10.0 mi North 9.2 mph - N/A   Mostly Cloudy
12:44 PM 89.6 °F 28.4 °F 11% 29.96 in 10.0 mi NNE 9.2 mph - N/A   Mostly Cloudy
1:46 PM 89.6 °F 26.6 °F 10% 29.99 in 10.0 mi North 3.5 mph - N/A   Mostly Cloudy
1:50 PM 95 °F 53 °F 16% 29.94 in 19 mi NW 4.5 mph - -   Clear
2:48 PM 93.2 °F 21.2 °F 7% 29.90 in 10.0 mi NNW 9.2 mph - N/A   Mostly Cloudy
3:46 PM 93.2 °F 21.2 °F 7% 29.88 in 10.0 mi North 6.9 mph - N/A   Mostly Cloudy
4:50 PM 96 °F 56 °F 17% 29.88 in 19 mi South 4.5 mph - -   Scattered Clouds
4:55 PM 93.2 °F 39.2 °F 15% 30.01 in 10.0 mi SSW 11.5 mph - N/A   Scattered Clouds
5:42 PM 86.0 °F 41.0 °F 20% 29.91 in 10.0 mi SSW 11.5 mph - N/A   Scattered Clouds
6:40 PM 80.6 °F 42.8 °F 26% 29.93 in 10.0 mi South 11.5 mph - N/A   Scattered Clouds
7:48 PM 73.4 °F 51.8 °F 47% 30.09 in 10.0 mi South 11.5 mph - N/A   Scattered Clouds
7:50 PM 79 °F 57 °F 37% 29.96 in 2 mi South 8.9 mph - -  
8:48 PM 69.8 °F 53.6 °F 56% 29.98 in 10.0 mi South 6.9 mph - N/A   Scattered Clouds
9:47 PM 66.2 °F 53.6 °F 64% 30.01 in 10.0 mi SSW 6.9 mph - N/A   Scattered Clouds
10:40 PM 64.4 °F 57.2 °F 77% 30.12 in 10.0 mi SSW 9.2 mph - N/A   Scattered Clouds
10:50 PM 68 °F 61 °F 71% 29.99 in 2 mi South 8.9 mph - -